| time (UTC) | temp F | wind direction | speed MPH | gust MPH | rain 1hr in | rain 24hr in | rain mn in | humidity % | barometer mb |
| 20260507191529 | 67 | 292 | 4.0 | 10.0 | 0.00 | 0.00 | 0.00 | 45 | 1019.1 |
| 20260507190029 | 66 | 336 | 4.0 | 10.0 | 0.00 | 0.00 | 0.00 | 48 | 1019.2 |
| 20260507184533 | 64 | 304 | 4.0 | 9.0 | 0.00 | 0.00 | 0.00 | 51 | 1019.3 |
| 20260507183038 | 63 | 259 | 5.0 | 10.0 | 0.00 | 0.00 | 0.00 | 53 | 1019.5 |
| 20260507181532 | 62 | 283 | 5.0 | 11.0 | 0.00 | 0.00 | 0.00 | 54 | 1019.6 |
| 20260507180029 | 63 | 313 | 5.0 | 11.0 | 0.00 | 0.00 | 0.00 | 55 | 1019.8 |
| 20260507174531 | 62 | 320 | 4.0 | 10.0 | 0.00 | 0.00 | 0.00 | 57 | 1019.7 |
| 20260507173029 | 62 | 300 | 5.0 | 8.0 | 0.00 | 0.00 | 0.00 | 57 | 1019.9 |
| 20260507171529 | 62 | 332 | 6.0 | 11.0 | 0.00 | 0.00 | 0.00 | 56 | 1020.0 |
| 20260507170033 | 64 | 333 | 7.0 | 15.0 | 0.00 | 0.00 | 0.00 | 56 | 1020.0 |
| 20260507164532 | 63 | 310 | 4.0 | 11.0 | 0.00 | 0.00 | 0.00 | 60 | 1020.0 |
| 20260507161532 | 61 | 241 | 4.0 | 8.0 | 0.00 | 0.00 | 0.00 | 64 | 1020.1 |
| 20260507160033 | 60 | 248 | 4.0 | 8.0 | 0.00 | 0.00 | 0.00 | 66 | 1020.4 |
| 20260507154533 | 59 | 220 | 5.0 | 8.0 | 0.00 | 0.00 | 0.00 | 67 | 1020.5 |
| 20260507153107 | 59 | 205 | 4.0 | 7.0 | 0.00 | 0.00 | 0.00 | 68 | 1020.6 |
| 20260507151531 | 58 | 108 | 0.0 | 4.0 | 0.00 | 0.00 | 0.00 | 72 | 1020.7 |
| 20260507150036 | 58 | 228 | 1.0 | 4.0 | 0.00 | 0.00 | 0.00 | 74 | 1020.6 |
| 20260507144532 | 56 | 308 | 2.0 | 4.0 | 0.00 | 0.00 | 0.00 | 81 | 1020.5 |
| 20260507143145 | 54 | 302 | 1.0 | 3.0 | 0.00 | 0.00 | 0.00 | 85 | 1020.6 |
| 20260507141530 | 51 | 57 | 0.0 | 3.0 | 0.00 | 0.00 | 0.00 | 89 | 1020.4 |
| 20260507134534 | 46 | 68 | 2.0 | 4.0 | 0.00 | 0.00 | 0.00 | 90 | 1020.1 |
| 20260507133145 | 46 | 105 | 3.0 | 4.0 | 0.00 | 0.00 | 0.00 | 90 | 1020.1 |
| 20260507131532 | 46 | 94 | 3.0 | 4.0 | 0.00 | 0.00 | 0.00 | 90 | 1020.1 |
| 20260507130030 | 46 | 47 | 1.0 | 4.0 | 0.00 | 0.00 | 0.00 | 90 | 1020.0 |
| 20260507123108 | 47 | 63 | 2.0 | 4.0 | 0.00 | 0.00 | 0.00 | 89 | 1019.8 |
| 20260507120037 | 47 | 89 | 3.0 | 6.0 | 0.00 | 0.00 | 0.00 | 87 | 1019.7 |
| 20260507114547 | 48 | 47 | 3.0 | 6.0 | 0.00 | 0.00 | 0.00 | 87 | 1019.6 |
| 20260507104545 | 50 | 68 | 4.0 | 10.0 | 0.00 | 0.00 | 0.00 | 82 | 1019.1 |
| 20260507103032 | 51 | 92 | 4.0 | 7.0 | 0.00 | 0.00 | 0.00 | 79 | 1019.1 |
| 20260507101607 | 52 | 112 | 3.0 | 8.0 | 0.00 | 0.00 | 0.00 | 79 | 1019.1 |
| 20260507100039 | 52 | 93 | 1.0 | 5.0 | 0.00 | 0.00 | 0.00 | 79 | 1019.1 |
| 20260507094531 | 53 | 54 | 1.0 | 4.0 | 0.00 | 0.00 | 0.00 | 79 | 1019.2 |
| 20260507093034 | 52 | 17 | 3.0 | 7.0 | 0.00 | 0.00 | 0.00 | 79 | 1019.3 |
| 20260507090108 | 53 | 73 | 3.0 | 6.0 | 0.00 | 0.00 | 0.00 | 81 | 1019.3 |
| 20260507084606 | 53 | 20 | 2.0 | 7.0 | 0.00 | 0.00 | 0.00 | 81 | 1019.3 |
| 20260507083106 | 53 | 16 | 4.0 | 7.0 | 0.00 | 0.00 | 0.00 | 81 | 1019.4 |
| 20260507081531 | 53 | 11 | 4.0 | 8.0 | 0.00 | 0.00 | 0.00 | 80 | 1019.5 |
| 20260507080108 | 53 | 13 | 4.0 | 8.0 | 0.00 | 0.00 | 0.00 | 80 | 1019.5 |
| 20260507074531 | 54 | 3 | 4.0 | 7.0 | 0.00 | 0.00 | 0.00 | 79 | 1019.5 |
| 20260507073032 | 54 | 3 | 4.0 | 8.0 | 0.00 | 0.00 | 0.00 | 78 | 1019.4 |
| 20260507071607 | 53 | 21 | 4.0 | 6.0 | 0.00 | 0.00 | 0.00 | 77 | 1019.4 |
| 20260507070030 | 53 | 237 | 1.0 | 4.0 | 0.00 | 0.00 | 0.00 | 76 | 1019.5 |
| 20260507064533 | 54 | 219 | 2.0 | 3.0 | 0.00 | 0.00 | 0.00 | 75 | 1019.6 |
| 20260507061605 | 56 | 54 | 2.0 | 6.0 | 0.00 | 0.00 | 0.00 | 68 | 1019.7 |
| 20260507060034 | 58 | 62 | 1.0 | 5.0 | 0.00 | 0.00 | 0.00 | 64 | 1019.8 |
| 20260507053031 | 60 | 228 | 6.0 | 13.0 | 0.00 | 0.00 | 0.00 | 58 | 1019.9 |
| 20260507051529 | 60 | 232 | 8.0 | 17.0 | 0.00 | 0.00 | 0.00 | 58 | 1019.8 |
| 20260507050031 | 59 | 234 | 10.0 | 19.0 | 0.00 | 0.00 | 0.00 | 57 | 1019.8 |
| 20260507044533 | 59 | 223 | 5.0 | 11.0 | 0.00 | 0.00 | 0.00 | 56 | 1020.0 |
| 20260507043029 | 59 | 230 | 3.0 | 7.0 | 0.00 | 0.00 | 0.00 | 56 | 1020.0 |
| 20260507041607 | 60 | 257 | 1.0 | 6.0 | 0.00 | 0.00 | 0.00 | 54 | 1020.0 |
| 20260507040050 | 61 | 229 | 2.0 | 6.0 | 0.00 | 0.00 | 0.00 | 52 | 1019.9 |
| 20260507034535 | 62 | 258 | 5.0 | 10.0 | 0.00 | 0.00 | 0.00 | 51 | 1019.7 |
| 20260507033030 | 63 | 270 | 7.0 | 18.0 | 0.00 | 0.00 | 0.00 | 51 | 1019.6 |
| 20260507031537 | 64 | 262 | 8.0 | 17.0 | 0.00 | 0.00 | 0.00 | 50 | 1019.4 |
| 20260507030030 | 64 | 255 | 9.0 | 20.0 | 0.00 | 0.00 | 0.00 | 50 | 1019.3 |
| 20260507024607 | 65 | 252 | 9.0 | 18.0 | 0.00 | 0.00 | 0.00 | 50 | 1019.3 |
| 20260507023029 | 65 | 252 | 9.0 | 20.0 | 0.00 | 0.00 | 0.00 | 49 | 1019.1 |
| 20260507021533 | 66 | 243 | 8.0 | 16.0 | 0.00 | 0.00 | 0.00 | 48 | 1019.1 |
| 20260507014529 | 65 | 230 | 7.0 | 20.0 | 0.00 | 0.00 | 0.00 | 51 | 1018.9 |
| 20260507013031 | 65 | 272 | 5.0 | 11.0 | 0.00 | 0.00 | 0.00 | 52 | 1018.9 |
| 20260507011533 | 66 | 285 | 7.0 | 15.0 | 0.00 | 0.00 | 0.00 | 50 | 1018.8 |
| 20260507010030 | 66 | 288 | 9.0 | 18.0 | 0.00 | 0.00 | 0.00 | 49 | 1018.7 |
| 20260507004531 | 68 | 274 | 10.0 | 21.0 | 0.00 | 0.00 | 0.00 | 47 | 1018.4 |
| 20260507001536 | 68 | 267 | 8.0 | 22.0 | 0.00 | 0.00 | 0.00 | 46 | 1018.4 |
| 20260507000031 | 70 | 278 | 10.0 | 17.0 | 0.00 | 0.00 | 0.00 | 45 | 1018.3 |
| 20260506234531 | 71 | 275 | 9.0 | 24.0 | 0.00 | 0.00 | 0.00 | 45 | 1018.2 |
| 20260506233107 | 72 | 277 | 8.0 | 18.0 | 0.00 | 0.00 | 0.00 | 44 | 1018.2 |
| 20260506230029 | 74 | 269 | 7.0 | 15.0 | 0.00 | 0.00 | 0.00 | 43 | 1018.4 |
| 20260506223030 | 74 | 283 | 11.0 | 21.0 | 0.00 | 0.00 | 0.00 | 44 | 1018.7 |
| 20260506221647 | 74 | 276 | 11.0 | 21.0 | 0.00 | 0.00 | 0.00 | 44 | 1018.7 |
| 20260506220107 | 75 | 278 | 11.0 | 20.0 | 0.00 | 0.00 | 0.00 | 43 | 1018.4 |
| 20260506214609 | 75 | 273 | 10.0 | 23.0 | 0.00 | 0.00 | 0.00 | 43 | 1018.3 |
| 20260506213029 | 75 | 262 | 8.0 | 17.0 | 0.00 | 0.00 | 0.00 | 45 | 1018.4 |
| 20260506211530 | 75 | 264 | 8.0 | 17.0 | 0.00 | 0.00 | 0.00 | 45 | 1018.5 |
| 20260506210145 | 74 | 269 | 8.0 | 17.0 | 0.00 | 0.00 | 0.00 | 46 | 1018.8 |
| 20260506204548 | 74 | 284 | 9.0 | 18.0 | 0.00 | 0.00 | 0.00 | 45 | 1018.8 |
| 20260506203030 | 75 | 285 | 10.0 | 19.0 | 0.00 | 0.00 | 0.00 | 45 | 1018.7 |
| 20260506201603 | 75 | 294 | 9.0 | 19.0 | 0.00 | 0.00 | 0.00 | 46 | 1018.7 |
| 20260506200028 | 74 | 310 | 8.0 | 15.0 | 0.00 | 0.00 | 0.00 | 49 | 1018.9 |
| 20260506194537 | 72 | 286 | 9.0 | 17.0 | 0.00 | 0.00 | 0.00 | 51 | 1018.9 |
| 20260506193030 | 72 | 281 | 10.0 | 19.0 | 0.00 | 0.00 | 0.00 | 53 | 1018.9 |